Retour au catalogue

STARLINK-35439

ActifCommunicationsVLEO
NORAD 66431·PAYLOAD·🇺🇸 United States

Lancé Nov 11, 2025 depuis Cape Canaveral Space Force Station

Loading…

Prochains Passages (prochaines 24 heures)

TLE

FraisSource: CelesTrak SupGP

Époque: Sep 15, 2026, 03:56 UTC

1 66431C 25259K   26258.16437500 -.00016747  00000+0 -60649-3 0  2584
2 66431  43.0003 284.0737 0001310 264.8908  19.6923 15.27591985    18

Suivez STARLINK-35439 en temps réel avec AllMySat

Download on the App Store